Regional Weather Roundup
Issued by NWS Burlington, VT

Home | Current Version | Previous Version | Text Only | Print | Product List | Glossary On
Versions: 1 2 3 4 5 6 7 8 9 10 11 12 13 14 15 16 17 18 19 20 21 22 23 24 25 26 27 28 29 30 31 32 33 34 35 36 37 38 39 40 41 42 43 44 45 46 47 48 49 50
000
ASUS41 KBTV 051230
RWRBTV
VERMONT REGIONAL WEATHER ROUNDUP
NATIONAL WEATHER SERVICE BURLINGTON VT
700 AM EST THU MAR 05 2015

NOTE: "FAIR" INDICATES FEW OR NO CLOUDS BELOW 12,000 FEET WITH NO
SIGNIFICANT WEATHER AND/OR OBSTRUCTIONS TO VISIBILITY.

* THESE REPORTS ARE NOT UNDER NWS QUALITY CONTROL AND/OR DO NOT
  REPORT WEATHER SUCH AS PRECIPITATION AND FOG.

VTZ001>019-051300-
_____VERMONT_____


CITY           SKY/WX    TMP DP  RH WIND       PRES   REMARKS
BURLINGTON     CLOUDY    17   5  59 NW20      30.11R WCI   1
6HR MIN TEMP:  17; 6HR MAX TEMP:  28;

MONTPELIER     CLOUDY    15   2  56 NW12G23   30.03R WCI   2
6HR MIN TEMP:  15; 6HR MAX TEMP:  27;

MORRISVILLE    LGT SNOW  15   9  76 N10       30.05S VSB 3/4 WCI   2
6HR MIN TEMP:  16; 6HR MAX TEMP:  29; 6HR PCP: TRACE;

ST. JOHNSBURY*   N/A     19   4  51 MISG      30.00R
6HR MIN TEMP:  19; 6HR MAX TEMP:  30;

LYNDONVILLE*   LGT SNOW  15   8  72 W12G17    30.00R VSB 1   WCI   2
6HR MIN TEMP:  16; 6HR MAX TEMP:  27;

MIDDLEBURY*    FAIR      19   4  52 N14       30.05S WCI   6
6HR MIN TEMP:  20; 6HR MAX TEMP:  31;

RUTLAND*       CLOUDY    21   3  45 NW10      30.00S WCI  10
6HR MIN TEMP:  21; 6HR MAX TEMP:  30;

SPRINGFIELD    CLOUDY    24   5  44 NW7       30.01R
6HR MIN TEMP:  24; 6HR MAX TEMP:  32;

HIGHGATE*      CLOUDY    13  -1  52 NW6       30.13R
6HR MIN TEMP:  14; 6HR MAX TEMP:  25;

NEWPORT*       LGT SNOW  12   8  83 NW8       30.03R VSB 3/4
6HR MIN TEMP:  12; 6HR MAX TEMP:  24;

BENNINGTON     CLOUDY    24   7  48 W9        30.00R
6HR MIN TEMP:  24; 6HR MAX TEMP:  31; 6HR PCP: TRACE;

GALLUP MILLS*    N/A     14 N/A N/A MISG        N/A
MT. MANSFIELD*   N/A      1 N/A N/A CALM        N/A

_____LAKE CHAMPLAIN_____


CITY           SKY/WX    TMP DP  RH WIND       PRES   REMARKS
BURTON ISLAND*   N/A     16   9  73 NW12        N/A  WCI   3
COLCHESTER RF*   N/A     18   7  62 N25         N/A  WCI  -1
DIAMOND ISL*     N/A     21   5  49 NW14        N/A  WCI   8

$$

NYZ007-026>031-035-052-083-051300-
_____NORTHERN NEW YORK_____


CITY           SKY/WX    TMP DP  RH WIND       PRES   REMARKS
PLATTSBURGH    CLOUDY    15   5  64 NW15G25   30.13R WCI   0
6HR MIN TEMP:  15; 6HR MAX TEMP:  26;

SARANAC LAKE   CLOUDY     8   2  76 NW8       30.01R HAZE
6HR MIN TEMP:   8; 6HR MAX TEMP:  18; 6HR PCP: TRACE;

MASSENA        MOSUNNY    9  -5  53 NW8       30.20R
6HR MIN TEMP:   9; 6HR MAX TEMP:  20;

OGDENSBURG*    SUNNY     10   0  61 N7        30.21R
POTSDAM*       CLOUDY    10   1  67 N9        30.19R
STARK FALLS*     N/A      7 N/A N/A N9          N/A
WATERTOWN      PTSUNNY   13   1  59 NW9       30.21R
6HR MIN TEMP:  13; 6HR MAX TEMP:  23;

FT DRUM        FLURRIES  10   1  67 N9        30.17R
6HR MIN TEMP:  11; 6HR MAX TEMP:  20;

ALBANY         CLOUDY    24   6  46 NW15G23   30.09R WCI  11
6HR MIN TEMP:  24; 6HR MAX TEMP:  33; 6HR PCP: TRACE;

GLENS FALLS    CLOUDY    24   4  42 NW5       30.06S
6HR MIN TEMP:  24; 6HR MAX TEMP:  33;


$$
NHZ002-005-011-051300-
_____NEW HAMPSHIRE_____


CITY           SKY/WX    TMP DP  RH WIND       PRES   REMARKS
LEBANON        CLOUDY    25   1  35 W10G17    29.99R WCI  15
6HR MIN TEMP:  25; 6HR MAX TEMP:  33;

KEENE          CLOUDY    27   3  36 N16G22    29.99S WCI  14
6HR MIN TEMP:  27; 6HR MAX TEMP:  36;

MT WASHINGTON  BLWGSNOW  -8  -8 100 NW69        N/A  VSB 1/16WCI -46
6HR MIN TEMP:  -7; 6HR MAX TEMP:   4; 6HR PCP:  0.15;

PLYMOUTH       FAIR      24   8  50 W8G21     29.99R
6HR MIN TEMP:  24; 6HR MAX TEMP:  33;

WHITEFIELD     CLOUDY    19   3  49 W12       29.95R WCI   7
6HR MIN TEMP:  19; 6HR MAX TEMP:  30;


$$

_____REGIONAL QUEBEC LOCATIONS_____


CITY           SKY/WX    TMP DP  RH WIND       PRES   REMARKS
MONTREAL       MOSUNNY    9  -8  47 W12G17    30.16R WCI  -6
QUEBEC CITY    MOSUNNY    5  -9  51 NW13      30.04R WCI -12
SHERBROOKE     MOSUNNY    9  -2  61 NW12      30.03R WCI  -6

_____REGIONAL ONTARIO LOCATIONS_____


CITY           SKY/WX    TMP DP  RH WIND       PRES   REMARKS
OTTAWA         MOSUNNY    5  -8  56 NW12      30.22R WCI -11

______KEY______
VSB  - VISIBILITY IN MILES
WCI  - WIND CHILL INDEX
HX   - HEAT INDEX
$$



USA.gov is the U.S. government's official web portal to all federal, state and local government web resources and services.